Total_Precipitation_Accumulation
0.38 0.39 0.37 0.37 0.35 0.29 0.25 0.26 0.22 0.20 0.18 0.16 0.13 0.10 0.09 0.08 0.07 0.07 0.07 0.07 0.06 0.06 0.09 0.11 0.13 0.15 0.18 0.20 0.24 0.26 0.24 0.22 0.20 0.20 0.20 0.21 0.21 0.21 0.22 0.23 0.24 0.24 0.25
0.42 0.40 0.39 0.38 0.36 0.33 0.31 0.30 0.26 0.26 0.24 0.21 0.16 0.12 0.10 0.10 0.09 0.08 0.08 0.08 0.07 0.06 0.07 0.10 0.13 0.18 0.22 0.27 0.32 0.33 0.31 0.28 0.25 0.24 0.25 0.25 0.25 0.25 0.26 0.28 0.28 0.29 0.30
0.53 0.49 0.46 0.41 0.36 0.34 0.35 0.39 0.38 0.35 0.30 0.26 0.19 0.15 0.14 0.13 0.11 0.10 0.09 0.09 0.08 0.07 0.06 0.08 0.12 0.16 0.20 0.27 0.33 0.38 0.37 0.34 0.32 0.31 0.31 0.31 0.32 0.32 0.34 0.36 0.37 0.39 0.41
0.57 0.56 0.52 0.47 0.42 0.42 0.39 0.40 0.43 0.42 0.37 0.32 0.27 0.23 0.19 0.16 0.13 0.13 0.12 0.10 0.09 0.07 0.06 0.07 0.10 0.12 0.16 0.23 0.31 0.39 0.41 0.39 0.37 0.36 0.35 0.36 0.37 0.38 0.42 0.45 0.48 0.52 0.56
0.63 0.59 0.56 0.52 0.52 0.51 0.43 0.38 0.39 0.39 0.39 0.39 0.38 0.33 0.28 0.23 0.19 0.18 0.15 0.14 0.12 0.11 0.09 0.08 0.08 0.09 0.12 0.16 0.22 0.34 0.44 0.47 0.47 0.45 0.44 0.43 0.43 0.45 0.48 0.51 0.57 0.63 0.70
0.75 0.67 0.64 0.59 0.58 0.61 0.57 0.49 0.42 0.41 0.39 0.39 0.41 0.41 0.38 0.31 0.24 0.21 0.17 0.15 0.15 0.13 0.12 0.12 0.11 0.09 0.10 0.14 0.17 0.25 0.37 0.46 0.50 0.48 0.47 0.47 0.47 0.49 0.53 0.58 0.65 0.73 0.85
0.92 0.82 0.73 0.71 0.68 0.64 0.62 0.61 0.60 0.57 0.55 0.55 0.57 0.52 0.42 0.38 0.33 0.26 0.24 0.22 0.19 0.18 0.17 0.16 0.15 0.15 0.15 0.14 0.17 0.21 0.27 0.38 0.52 0.57 0.55 0.53 0.52 0.55 0.61 0.70 0.81 0.89 0.97
1.03 0.97 0.87 0.80 0.77 0.76 0.72 0.71 0.72 0.70 0.68 0.70 0.75 0.76 0.63 0.49 0.37 0.30 0.30 0.29 0.27 0.27 0.27 0.24 0.22 0.21 0.19 0.19 0.18 0.19 0.23 0.27 0.39 0.59 0.69 0.70 0.71 0.73 0.80 0.91 1.04 1.13 1.21
1.30 1.16 1.14 1.06 0.91 0.85 0.79 0.76 0.74 0.75 0.75 0.74 0.75 0.86 0.81 0.63 0.48 0.39 0.33 0.29 0.30 0.32 0.31 0.29 0.27 0.25 0.23 0.22 0.20 0.21 0.23 0.27 0.33 0.50 0.74 0.90 0.96 1.04 1.16 1.28 1.38 1.48 1.53
1.59 1.53 1.40 1.35 1.22 1.06 0.94 0.90 0.88 0.88 0.91 0.88 0.84 0.78 0.74 0.68 0.68 0.57 0.42 0.36 0.34 0.34 0.35 0.34 0.29 0.27 0.26 0.27 0.27 0.29 0.32 0.36 0.43 0.53 0.74 0.98 1.17 1.37 1.58 1.73 1.83 1.88 1.85
1.65 1.63 1.59 1.52 1.42 1.31 1.22 1.16 1.10 1.07 1.06 1.02 0.96 0.90 0.88 0.79 0.74 0.76 0.57 0.40 0.41 0.41 0.44 0.45 0.43 0.39 0.38 0.38 0.38 0.41 0.46 0.49 0.55 0.66 0.85 1.09 1.40 1.69 1.93 2.09 2.15 2.10 2.02
1.78 1.64 1.60 1.59 1.53 1.50 1.45 1.42 1.39 1.29 1.22 1.17 1.12 1.05 1.06 1.01 0.87 0.89 0.83 0.62 0.56 0.49 0.51 0.53 0.55 0.56 0.55 0.55 0.54 0.58 0.57 0.58 0.64 0.76 1.00 1.28 1.46 1.63 1.78 1.98 2.13 2.18 2.20
1.78 1.69 1.63 1.64 1.64 1.57 1.55 1.55 1.51 1.40 1.33 1.27 1.24 1.20 1.16 1.10 1.06 1.10 1.13 0.98 0.85 0.69 0.62 0.60 0.59 0.61 0.63 0.65 0.65 0.72 0.70 0.72 0.74 0.76 0.91 1.19 1.32 1.34 1.37 1.49 1.75 1.97 2.11
1.76 1.75 1.74 1.66 1.66 1.64 1.59 1.56 1.52 1.42 1.37 1.33 1.29 1.28 1.25 1.18 1.20 1.24 1.29 1.35 1.25 1.00 0.82 0.71 0.68 0.73 0.76 0.78 0.80 0.83 0.70 0.74 0.73 0.75 0.80 0.92 0.97 0.95 0.97 1.07 1.25 1.45 1.64
1.66 1.62 1.63 1.58 1.52 1.51 1.50 1.51 1.48 1.38 1.34 1.29 1.25 1.24 1.22 1.17 1.19 1.23 1.30 1.45 1.61 1.45 1.08 0.82 0.76 0.76 0.82 0.84 0.88 0.84 0.73 0.77 0.77 0.74 0.74 0.74 0.76 0.77 0.78 0.86 0.98 1.10 1.23
1.37 1.39 1.41 1.40 1.36 1.36 1.35 1.35 1.33 1.32 1.31 1.22 1.17 1.16 1.13 1.09 1.13 1.19 1.27 1.34 1.49 1.60 1.35 0.90 0.76 0.72 0.75 0.75 0.79 0.74 0.67 0.75 0.71 0.66 0.63 0.63 0.66 0.71 0.73 0.75 0.81 0.89 0.98
1.08 1.10 1.08 1.10 1.13 1.15 1.17 1.18 1.17 1.19 1.22 1.18 1.16 1.16 1.15 1.12 1.13 1.13 1.17 1.21 1.27 1.39 1.37 0.98 0.80 0.77 0.76 0.72 0.71 0.67 0.62 0.62 0.58 0.62 0.60 0.60 0.61 0.65 0.71 0.73 0.74 0.78 0.83
0.92 0.91 0.90 0.87 0.87 0.89 0.93 0.95 0.96 1.00 1.05 1.06 1.06 1.09 1.09 1.12 1.15 1.13 1.12 1.11 1.09 1.09 1.17 1.02 0.77 0.72 0.69 0.68 0.71 0.72 0.65 0.59 0.54 0.58 0.58 0.57 0.60 0.61 0.65 0.72 0.76 0.79 0.81
0.84 0.81 0.79 0.77 0.74 0.73 0.76 0.80 0.86 0.89 0.92 0.93 0.94 0.96 0.98 1.02 1.04 1.01 0.99 0.97 0.95 0.97 1.04 1.04 0.85 0.72 0.68 0.66 0.71 0.72 0.66 0.62 0.57 0.60 0.65 0.64 0.67 0.66 0.68 0.73 0.80 0.83 0.84
0.88 0.79 0.74 0.71 0.71 0.71 0.73 0.76 0.83 0.88 0.89 0.89 0.90 0.91 0.89 0.87 0.85 0.85 0.87 0.89 0.96 1.04 1.06 1.09 0.98 0.81 0.75 0.70 0.75 0.74 0.70 0.64 0.63 0.61 0.70 0.74 0.75 0.73 0.72 0.74 0.79 0.85 0.86
0.86 0.86 0.81 0.77 0.74 0.72 0.76 0.81 0.82 0.86 0.87 0.88 0.85 0.82 0.81 0.83 0.80 0.79 0.82 0.86 0.94 1.08 1.18 1.23 1.14 0.99 0.87 0.79 0.75 0.73 0.81 0.80 0.78 0.72 0.72 0.73 0.74 0.75 0.75 0.78 0.81 0.82 0.86
0.81 0.88 0.92 0.90 0.84 0.82 0.93 0.91 0.85 0.85 0.88 0.87 0.83 0.76 0.74 0.78 0.76 0.77 0.80 0.87 1.01 1.15 1.29 1.32 1.27 1.12 0.89 0.77 0.78 0.90 1.03 1.17 1.09 0.75 0.76 0.79 0.78 0.85 0.82 0.79 0.90 0.94 0.94
0.90 0.92 0.97 1.00 0.98 1.00 1.02 0.90 0.88 0.81 0.81 0.82 0.79 0.75 0.70 0.67 0.71 0.66 0.72 0.85 0.94 1.04 1.10 1.10 1.08 0.90 0.80 0.76 0.95 1.18 1.22 1.25 1.06 0.78 0.89 1.02 0.90 0.90 0.84 0.87 1.01 0.97 0.94
0.92 0.96 0.99 0.99 0.96 0.95 0.95 0.84 0.81 0.75 0.75 0.75 0.73 0.70 0.71 0.71 0.70 0.74 0.80 0.86 0.78 0.73 0.76 0.77 0.79 0.78 0.80 0.88 1.12 1.41 1.51 1.51 1.29 1.09 1.07 1.15 0.93 0.86 0.83 0.87 0.99 0.94 0.86
0.88 0.86 0.86 0.88 0.88 0.88 0.85 0.77 0.73 0.68 0.69 0.66 0.64 0.62 0.63 0.65 0.77 0.93 0.98 0.97 0.80 0.64 0.65 0.75 0.84 0.85 0.89 0.97 1.07 1.38 1.62 1.74 1.52 1.12 0.99 1.06 0.98 0.92 0.91 0.87 0.89 0.94 0.88
0.81 0.77 0.73 0.72 0.71 0.73 0.75 0.71 0.68 0.64 0.66 0.63 0.59 0.58 0.63 0.65 0.77 0.92 0.90 0.95 0.89 0.74 0.72 0.75 0.78 0.81 0.78 0.84 1.02 1.17 1.61 2.08 1.85 1.39 0.93 1.01 1.04 1.11 1.30 0.95 0.82 0.84 0.87